星链-32469 (STARLINK-32469)

导读 | 星芒AI

STARLINK-32469 是 SpaceX Starlink 卫星互联网项目中的一颗低轨卫星,属于其第二代卫星群(v1.5 或 v2 版本)。该卫星于2023年发射,旨在为全球用户提供高速、低延迟的宽带互联网服务。它运行在约550公里高度的近地轨道,配备先进相控阵天线和激光通信系统,以提升网络性能和卫星间通信能力。作为 Starlink 网络的一部分,STARLINK-32469 有助于扩大覆盖范围,特别是在偏远和网络基础设施薄弱的地区。

基本信息
目录编号:
61721
目录名称:
STARLINK-32469
国际标识:
2024-196Q
轨道中心:
EARTH
卫星名称:
星链-32469
卫星全名:
星链-32469 (STARLINK-32469)
卫星状态:
在轨 (已飞行370 天)
发射日期:
2024-10-30 UTC
国别 :
美国 (US)
星等 :
--
轨道信息
数据来源 国际轨道数据 AOE轨道数据
星历时间 2025-11-02T16:27:12+0800
1天前
查看轨道信息
2025-11-01T15:00:00+0800
2天前
查看轨道信息
半长轴 6853.382km 6853.307km
偏心率 0.0001343 0.0001493
轨道倾角 53.161° 53.162°
近地点辐角 73.431° 65.643°
升交点赤经 332.594° 337.524°
平近点角 286.684° 208.950°
近地点 474.326km 474.148km
远地点 476.168km 476.196km
周期 94.106分钟 94.104分钟
每日圈数 15.301902 15.302153
详细信息
固有亮度:
5
最大亮度:
2.5
卫星平台:
Starlink V1.0
覆盖范围:
全球
运营商:
太空探索技术公司
运营商所在国:
美国
制造商(研发单位):
太空探索技术公司
制造商所在国:
美国
使用方式:
暂无
卫星简介
Starlink 计划是 SpaceX 推出的全球卫星互联网项目,通过发射低轨道卫星,为全球尤其是偏远地区提供高速、低延迟的互联网服务。自 2019 年起,Starlink 已部署数千颗卫星,旨在缩小全球数字鸿沟,推动互联网普及。该项目还为军事、航空等行业提供通信支持,带来广泛经济效益。
2D轨道图
3D轨道图
轨道高度分析图
轨道倾角分析图
轨道综合分析图
查看轨道综合分析图